,�O�C���x,�����t���O,�O�C���x,�����t���O,�󒲎����x,�����t���O,�󒲎����x,�����t���O,��󒲎����x,�����t���O,����,�����t���O
2003/9/1 0:00,29.1,0,78,0,29.2,0,77.7,0,28.9,0,3.7,0
2003/9/1 0:15,29.2,0,77,0,29.2,0,77.7,0,28.9,0,3.5,0
2003/9/1 0:30,29.3,0,76,0,29.3,0,77.6,0,28.9,0,3.8,0
2003/9/1 0:45,29.1,0,78,0,29.2,0,77.2,0,28.9,0,3.6,0
2003/9/1 1:00,29,0,78,0,29.1,0,78.9,0,28.9,0,3.6,0
2003/9/1 1:15,28.7,0,79,0,29.2,0,78,0,28.9,0,3.6,0
2003/9/1 1:30,28.6,0,79,0,29.2,0,77.8,0,28.9,0,3.7,0
2003/9/1 1:45,28.7,0,78,0,29.3,0,77.7,0,28.9,0,3.7,0
2003/9/1 2:00,28.4,0,79,0,29.3,0,77.7,0,28.8,0,3.7,0
2003/9/1 2:15,28.4,0,78,0,29.2,0,77,0,28.8,0,3.6,0
2003/9/1 2:30,28.5,0,78,0,29.3,0,76.7,0,28.7,0,3.9,0
2003/9/1 2:45,28.4,0,79,0,29.3,0,76.8,0,28.6,0,4,0
2003/9/1 3:00,28.5,0,81,0,29.3,0,76.6,0,28.6,0,4.1,0
2003/9/1 3:15,28.6,0,81,0,29.2,0,78.1,0,28.6,0,3.9,0
2003/9/1 3:30,28.5,0,82,0,29.2,0,78.6,0,28.7,0,3.8,0
2003/9/1 3:45,28.6,0,82,0,29.3,0,78.4,0,28.7,0,3.8,0
2003/9/1 4:00,28.6,0,82,0,29.2,0,79.4,0,28.7,0,3.8,0
2003/9/1 4:15,28.5,0,82,0,29.2,0,79.6,0,28.8,0,3.8,0
2003/9/1 4:30,28.4,0,83,0,29.2,0,79.1,0,28.8,0,3.8,0
2003/9/1 4:45,28.5,0,82,0,29.3,0,78.7,0,28.8,0,3.6,0
2003/9/1 5:00,28.6,0,81,0,29.2,0,78.9,0,28.8,0,3.7,0
2003/9/1 5:15,28.3,0,81,0,29.2,0,79,0,28.8,0,3.7,0
2003/9/1 5:30,28.2,0,79,0,29.3,0,78.6,0,28.8,0,3.7,0
2003/9/1 5:45,28,0,79,0,29.3,0,77.9,0,28.8,0,3.7,0
2003/9/1 6:00,28,0,79,0,29.3,0,77.4,0,28.8,0,3.6,0
2003/9/1 6:15,27.8,0,80,0,29.3,0,77.1,0,28.8,0,3.9,0
2003/9/1 6:30,27.9,0,80,0,29.3,0,76.5,0,28.7,0,3.8,0
2003/9/1 6:45,28,0,80,0,29.3,0,76.2,0,28.7,0,3.4,0
2003/9/1 7:00,28.6,0,78,0,29.2,0,75.1,0,28.7,0,3.6,0
2003/9/1 7:15,29.3,0,74,0,28.3,0,72.3,0,28.7,0,3.5,0
2003/9/1 7:30,29.5,0,70,0,29.1,0,76.3,0,28.8,0,3.4,0
2003/9/1 7:45,30,0,67,0,29.2,0,75.9,0,29.1,0,3.5,0
2003/9/1 8:00,30.3,0,66,0,29.3,0,74.7,0,29.3,0,3.4,0
2003/9/1 8:15,31.6,0,63,0,29.3,0,74.9,0,29.4,0,3.4,0
2003/9/1 8:30,33.3,0,58,0,29.3,0,74.3,0,29.6,0,3.2,0
2003/9/1 8:45,39.6,0,38,0,29.3,0,75.6,0,29.6,0,3.2,0
2003/9/1 9:00,40.3,0,35,0,29.3,0,75.8,0,29.7,0,3.4,0
2003/9/1 9:15,44,0,28,0,29.4,0,75.5,0,29.8,0,3.6,0
2003/9/1 9:30,45.6,0,25,0,29.5,0,75.2,0,29.9,0,3.7,0
2003/9/1 9:45,44.4,0,26,0,29.5,0,75.5,0,30,0,3.7,0
2003/9/1 10:00,46.7,0,23,0,29.6,0,74.3,0,30,0,3.6,0
2003/9/1 10:15,40.4,0,37,0,29.7,0,74,0,30.1,0,3.7,0
2003/9/1 10:30,45.5,0,25,0,29.7,0,74.4,0,30.1,0,3.6,0
2003/9/1 10:45,38.9,0,39,0,29.8,0,73.7,0,30.1,0,3.6,0
2003/9/1 11:00,36.6,0,45,0,29.8,0,74,0,30.2,0,4,0
2003/9/1 11:15,35.9,0,47,0,29.9,0,72.9,0,30.2,0,3.9,0
2003/9/1 11:30,35.8,0,47,0,30,0,72.4,0,30.4,0,4,0
2003/9/1 11:45,35.3,0,49,0,29.9,0,73.1,0,30.5,0,3.8,0
2003/9/1 12:00,33.8,0,58,0,29.9,0,73.9,0,30.4,0,3.9,0
2003/9/1 12:15,34.7,0,52,0,29.8,0,75.5,0,30.2,0,3.8,0
2003/9/1 12:30,35.5,0,51,0,29.8,0,74.1,0,30.1,0,3.9,0
2003/9/1 12:45,35.4,0,51,0,29.9,0,75,0,30,0,3.9,0
2003/9/1 13:00,34.8,0,52,0,29.9,0,75.4,0,30,0,4,0
2003/9/1 13:15,34.7,0,52,0,29.9,0,74.4,0,30,0,4,0
2003/9/1 13:30,34,0,58,0,29.9,0,73.9,0,29.9,0,4.1,0
2003/9/1 13:45,33.7,0,58,0,29.9,0,76.5,0,29.9,0,3.9,0
2003/9/1 14:00,33.1,0,59,0,29.8,0,76.9,0,29.9,0,4,0
2003/9/1 14:15,32.9,0,59,0,29.7,0,76.5,0,29.9,0,4,0
2003/9/1 14:30,32.8,0,64,0,29.7,0,75.8,0,29.9,0,4.1,0
2003/9/1 14:45,31.8,0,72,0,29.6,0,78.3,0,29.9,0,4.2,0
2003/9/1 15:00,31,0,70,0,29.5,0,79.5,0,29.8,0,4.2,0
2003/9/1 15:15,32.1,0,66,0,29.7,0,79.2,0,29.8,0,4.5,0
2003/9/1 15:30,31.9,0,65,0,29.3,0,75.1,0,29.8,0,4.7,0
2003/9/1 15:45,31.4,0,70,0,29,0,71.9,0,29.8,0,4.3,0
2003/9/1 16:00,30.7,0,71,0,28.8,0,71.4,0,29.8,0,4.4,0
2003/9/1 16:15,31.1,0,73,0,28.8,0,71.3,0,29.7,0,4.5,0
2003/9/1 16:30,31.8,0,65,0,28.8,0,73.5,0,29.6,0,4.4,0
2003/9/1 16:45,31.7,0,64,0,29.1,0,73.8,0,29.6,0,4.4,0
2003/9/1 17:00,31.4,0,63,0,29.2,0,71.6,0,29.6,0,4.4,0
2003/9/1 17:15,30.9,0,65,0,29.3,0,68.9,0,29.7,0,4.5,0
2003/9/1 17:30,31.4,0,64,0,29.7,0,68.8,0,29.7,0,4.4,0
2003/9/1 17:45,31.6,0,63,0,29.6,0,67.8,0,29.6,0,4.4,0
2003/9/1 18:00,31.6,0,63,0,29.5,0,67,0,29.6,0,4.5,0
2003/9/1 18:15,31.5,0,63,0,29.3,0,67.2,0,29.6,0,4.4,0
2003/9/1 18:30,31.5,0,63,0,29.2,0,67.5,0,29.6,0,4.4,0
2003/9/1 18:45,31.2,0,65,0,29.1,0,67.4,0,29.6,0,4.3,0
2003/9/1 19:00,31.1,0,64,0,29,0,67.2,0,29.6,0,4.4,0
2003/9/1 19:15,31.4,0,64,0,28.8,0,67,0,29.6,0,4.4,0
2003/9/1 19:30,31.6,0,63,0,28.9,0,70.2,0,29.6,0,4.2,0
2003/9/1 19:45,31.3,0,65,0,28.7,0,66.3,0,29.6,0,3.9,0
2003/9/1 20:00,31.2,0,67,0,28.7,0,65.7,0,29.6,0,3.8,0
2003/9/1 20:15,31.1,0,70,0,28.6,0,66.2,0,29.6,0,3.9,0
2003/9/1 20:30,30.9,0,70,0,28.6,0,66.2,0,29.6,0,4,0
2003/9/1 20:45,31.2,0,68,0,28.6,0,66.1,0,29.7,0,3.9,0
2003/9/1 21:00,30.8,0,70,0,28.5,0,65.8,0,29.7,0,3.9,0
2003/9/1 21:15,30.9,0,72,0,28.4,0,67.9,0,29.7,0,3.9,0
2003/9/1 21:30,30.8,0,71,0,28.3,0,68.5,0,29.7,0,3.9,0
2003/9/1 21:45,30.7,0,70,0,28.3,0,68,0,29.6,0,3.9,0
2003/9/1 22:00,30.6,0,69,0,28.4,0,67.9,0,29.6,0,4,0
2003/9/1 22:15,30.6,0,68,0,28.5,0,64.2,0,29.5,0,4,0
2003/9/1 22:30,30.3,0,71,0,28.6,0,65.9,0,29.5,0,4,0
2003/9/1 22:45,30.1,0,74,0,28.7,0,67.6,0,29.5,0,4,0
2003/9/1 23:00,30,0,75,0,28.3,0,64.7,0,29.4,0,4,0
2003/9/1 23:15,30.2,0,74,0,29,0,69.7,0,29.5,0,3.9,0
2003/9/1 23:30,30,0,75,0,29.2,0,71.4,0,29.5,0,3.8,0
2003/9/1 23:45,30,0,73,0,29.3,0,72.4,0,29.5,0,3.8,0
2003/9/2 0:00,29.8,0,76,0,29.3,0,73.2,0,29.5,0,3.8,0
2003/9/2 0:15,29.9,0,75,0,29.4,0,73.6,0,29.5,0,3.9,0
2003/9/2 0:30,29.6,0,75,0,29.4,0,74.2,0,29.6,0,4.1,0
2003/9/2 0:45,29.6,0,76,0,29.4,0,73.8,0,29.6,0,4,0
2003/9/2 1:00,29.5,0,76,0,29.5,0,74,0,29.6,0,4.3,0
2003/9/2 1:15,29.4,0,75,0,29.5,0,74.1,0,29.6,0,4.2,0
2003/9/2 1:30,29.3,0,76,0,29.5,0,74.1,0,29.6,0,4.3,0
2003/9/2 1:45,29.4,0,76,0,29.5,0,74.1,0,29.5,0,4.3,0
2003/9/2 2:00,29.5,0,75,0,29.5,0,74.2,0,29.5,0,4.2,0
2003/9/2 2:15,29.2,0,77,0,29.5,0,74.3,0,29.5,0,4.2,0
2003/9/2 2:30,29.2,0,76,0,29.6,0,74.4,0,29.5,0,4.2,0
2003/9/2 2:45,29.1,0,77,0,29.6,0,74.5,0,29.5,0,4.3,0
2003/9/2 3:00,28.7,0,78,0,29.6,0,74.5,0,29.5,0,4.1,0
2003/9/2 3:15,29,0,77,0,29.6,0,74.6,0,29.5,0,4.2,0
2003/9/2 3:30,28.9,0,76,0,29.6,0,74.7,0,29.5,0,4.3,0
2003/9/2 3:45,29,0,76,0,29.6,0,74.4,0,29.5,0,4.2,0
2003/9/2 4:00,28.9,0,75,0,29.6,0,74.3,0,29.5,0,4.2,0
2003/9/2 4:15,29.1,0,75,0,29.6,0,74.3,0,29.5,0,4.2,0
2003/9/2 4:30,28.8,0,75,0,29.6,0,74,0,29.5,0,4.4,0
2003/9/2 4:45,28.8,0,75,0,29.6,0,73.9,0,29.5,0,4.4,0
2003/9/2 5:00,28.6,0,77,0,29.6,0,73.7,0,29.5,0,4.4,0
2003/9/2 5:15,28.7,0,75,0,29.6,0,73.6,0,29.4,0,4.4,0
2003/9/2 5:30,28.7,0,75,0,29.6,0,73.7,0,29.4,0,4.2,0
2003/9/2 5:45,28.6,0,75,0,29.6,0,73.6,0,29.4,0,4.3,0
2003/9/2 6:00,28.5,0,76,0,29.6,0,73.4,0,29.4,0,4.4,0
2003/9/2 6:15,28.5,0,76,0,29.6,0,73.7,0,29.4,0,4.2,0
2003/9/2 6:30,28.7,0,75,0,29.6,0,73.5,0,29.4,0,4,0
2003/9/2 6:45,29,0,73,0,29.6,0,73.9,0,29.4,0,3.6,0
2003/9/2 7:00,29.5,0,71,0,29.6,0,74.5,0,29.5,0,3.7,0
2003/9/2 7:15,29.9,0,68,0,29.6,0,74.9,0,29.6,0,3.5,0
2003/9/2 7:30,30.3,0,67,0,29.7,0,76.6,0,29.8,0,3.6,0
2003/9/2 7:45,30.6,0,65,0,29.8,0,75.1,0,30,0,3.6,0
2003/9/2 8:00,31.1,0,63,0,29.8,0,74.7,0,30.2,0,3.6,0
2003/9/2 8:15,31.9,0,59,0,29.7,0,72.9,0,30.4,0,3.6,0
2003/9/2 8:30,33.7,0,55,0,29.7,0,71.5,0,30.5,0,3.6,0
2003/9/2 8:45,39.9,0,36,0,29.8,0,73.2,0,30.6,0,3.6,0
2003/9/2 9:00,40.6,0,34,0,29.8,0,73.1,0,30.6,0,3.7,0
2003/9/2 9:15,43.4,0,29,0,29.8,0,72.7,0,30.6,0,3.5,0
2003/9/2 9:30,44.7,0,26,0,29.8,0,72.3,0,30.6,0,3.6,0
2003/9/2 9:45,45.9,0,24,0,30,0,71.7,0,30.5,0,3.6,0
2003/9/2 10:00,47.2,0,22,0,29.9,0,72.6,0,30.5,0,3.5,0
2003/9/2 10:15,45.8,0,25,0,30,0,72,0,30.5,0,3.9,0
2003/9/2 10:30,45.3,0,26,0,30,0,72.5,0,30.4,0,4.1,0
2003/9/2 10:45,39.3,0,38,0,30.1,0,72.2,0,30.4,0,4.1,0
2003/9/2 11:00,37.4,0,42,0,30.1,0,71.7,0,30.4,0,4,0
2003/9/2 11:15,37.2,0,43,0,30.1,0,71.4,0,30.4,0,4.2,0
2003/9/2 11:30,36.8,0,46,0,30.1,0,71.8,0,30.4,0,4.2,0
2003/9/2 11:45,36.2,0,47,0,30.1,0,73.2,0,30.4,0,4,0
2003/9/2 12:00,36.1,0,48,0,30.3,0,72.1,0,30.3,0,4.2,0
2003/9/2 12:15,35.4,0,52,0,30.3,0,73.3,0,30.3,0,4.1,0
2003/9/2 12:30,35.3,0,54,0,30.2,0,76.2,0,30.3,0,4.2,0
2003/9/2 12:45,35.3,0,51,0,30.2,0,75.9,0,30.3,0,4.6,0
2003/9/2 13:00,34.9,0,52,0,30.2,0,73.5,0,30.3,0,4.6,0
2003/9/2 13:15,34.5,0,53,0,30.2,0,73.3,0,30.3,0,4.7,0
2003/9/2 13:30,34.8,0,54,0,30.2,0,72.7,0,30.3,0,4.5,0
2003/9/2 13:45,34.4,0,54,0,30.3,0,74.3,0,30.3,0,4.5,0
2003/9/2 14:00,34.2,0,54,0,30.4,0,73.5,0,30.3,0,4.6,0
2003/9/2 14:15,34,0,55,0,30.3,0,72.6,0,30.3,0,4.5,0
2003/9/2 14:30,34,0,56,0,30.4,0,72.7,0,30.3,0,4.6,0
2003/9/2 14:45,33.8,0,57,0,30.5,0,73,0,30.3,0,4.7,0
2003/9/2 15:00,33.8,0,56,0,30.5,0,74.1,0,30.3,0,4.7,0
2003/9/2 15:15,33.8,0,57,0,29.2,0,63.7,0,30.3,0,4.7,0
2003/9/2 15:30,33.8,0,57,0,29,0,62.4,0,30.2,0,4.7,0
2003/9/2 15:45,33.7,0,56,0,28.9,0,62.3,0,30,0,4.6,0
2003/9/2 16:00,33.7,0,56,0,28.7,0,61,0,29.9,0,4.8,0
2003/9/2 16:15,33.7,0,57,0,28.7,0,61.1,0,29.8,0,4.8,0
2003/9/2 16:30,33.6,0,56,0,28.6,0,59.3,0,29.7,0,4.4,0
2003/9/2 16:45,33.5,0,59,0,28.5,0,59.4,0,29.7,0,4.4,0
2003/9/2 17:00,33.3,0,59,0,29.7,0,66.3,0,29.6,0,4.4,0
2003/9/2 17:15,33.1,0,59,0,30.1,0,68.7,0,29.7,0,4.3,0
2003/9/2 17:30,32.6,0,60,0,30.2,0,69.9,0,29.8,0,4.5,0
2003/9/2 17:45,33,0,59,0,30.3,0,71,0,29.9,0,4.6,0
2003/9/2 18:00,32.9,0,60,0,30.4,0,71.1,0,30,0,4.6,0
2003/9/2 18:15,32.9,0,59,0,30.5,0,71,0,30,0,4.6,0
2003/9/2 18:30,32.6,0,62,0,30.4,0,71.4,0,30.1,0,4.4,0
2003/9/2 18:45,31.9,0,64,0,30.1,0,67.5,0,30.1,0,4.3,0
2003/9/2 19:00,32.2,0,63,0,29.9,0,67.1,0,30.2,0,4.3,0
2003/9/2 19:15,32.4,0,63,0,29.9,0,68.6,0,30.2,0,4.2,0
2003/9/2 19:30,32.1,0,65,0,29.8,0,68.8,0,30.2,0,4.5,0
2003/9/2 19:45,31.2,0,69,0,29.8,0,69.1,0,30.2,0,4.6,0
2003/9/2 20:00,31.5,0,70,0,29.7,0,68.7,0,30.2,0,4.5,0
2003/9/2 20:15,31,0,74,0,29.7,0,69.4,0,30.2,0,4.5,0
2003/9/2 20:30,30.8,0,74,0,29.9,0,72.7,0,30.2,0,4.5,0
2003/9/2 20:45,31.1,0,74,0,29.9,0,73.1,0,30.2,0,4.5,0
2003/9/2 21:00,31.6,0,70,0,29.9,0,73.2,0,30.2,0,4.4,0
2003/9/2 21:15,31.7,0,70,0,29.9,0,73.3,0,30.2,0,4.4,0
2003/9/2 21:30,31.8,0,69,0,29.8,0,70,0,30.2,0,4.4,0
2003/9/2 21:45,31.8,0,68,0,29.8,0,69.7,0,30.2,0,4.5,0
2003/9/2 22:00,31.6,0,67,0,29.7,0,69.7,0,30.2,0,4.4,0
2003/9/2 22:15,31.6,0,68,0,29.7,0,69.1,0,30.2,0,4.4,0
2003/9/2 22:30,31.5,0,67,0,29.7,0,69.1,0,30.2,0,4.5,0
2003/9/2 22:45,31.6,0,67,0,29.6,0,69.3,0,30.2,0,4.6,0
2003/9/2 23:00,31.5,0,68,0,29.6,0,69.3,0,30.2,0,4.4,0
2003/9/2 23:15,31.5,0,68,0,29.5,0,69.1,0,30.2,0,4.4,0
2003/9/2 23:30,31.3,0,69,0,29.5,0,68.7,0,30.2,0,4.4,0
2003/9/2 23:45,31.1,0,69,0,29.6,0,69.9,0,30.2,0,4.4,0
2003/9/3 0:00,31,0,68,0,29.5,0,68.7,0,30.2,0,4.4,0
2003/9/3 0:15,31.1,0,68,0,29.5,0,68.9,0,30.2,0,4.4,0
2003/9/3 0:30,30.8,0,70,0,29.5,0,68.7,0,30.2,0,4.6,0
2003/9/3 0:45,30.6,0,71,0,29.4,0,68.5,0,30.2,0,4.3,0
2003/9/3 1:00,30.7,0,71,0,29.4,0,68.5,0,30,0,4.2,0
2003/9/3 1:15,30.3,0,73,0,29.5,0,70.2,0,29.8,0,4.2,0
2003/9/3 1:30,30,0,73,0,29.7,0,72.8,0,29.8,0,4.2,0
2003/9/3 1:45,30,0,74,0,29.7,0,73,0,29.8,0,4.3,0
2003/9/3 2:00,29.9,0,74,0,29.8,0,73.1,0,29.8,0,4.3,0
2003/9/3 2:15,30,0,73,0,29.8,0,73.3,0,29.8,0,4.3,0
2003/9/3 2:30,30,0,73,0,29.9,0,73.2,0,29.9,0,4.3,0
2003/9/3 2:45,30,0,74,0,29.9,0,73.2,0,29.9,0,4.4,0
2003/9/3 3:00,29.8,0,74,0,29.9,0,73.2,0,29.9,0,4.4,0
2003/9/3 3:15,29.8,0,74,0,29.9,0,73.1,0,29.9,0,4.3,0
2003/9/3 3:30,29.7,0,75,0,29.9,0,73.1,0,29.9,0,4.3,0
2003/9/3 3:45,29.6,0,75,0,29.9,0,73.1,0,29.9,0,4.2,0
2003/9/3 4:00,29.4,0,76,0,30,0,73.1,0,29.9,0,4.1,0
2003/9/3 4:15,29.4,0,76,0,30,0,73.1,0,29.9,0,4.2,0
2003/9/3 4:30,29.2,0,76,0,30,0,73.1,0,29.9,0,4.3,0
2003/9/3 4:45,29.1,0,77,0,30,0,73.1,0,29.9,0,4.2,0
2003/9/3 5:00,29,0,78,0,30,0,73,0,29.9,0,4.2,0
2003/9/3 5:15,28.9,0,78,0,30,0,73.1,0,29.9,0,4.2,0
2003/9/3 5:30,29,0,78,0,30,0,72.9,0,29.8,0,4.3,0
2003/9/3 5:45,28.8,0,79,0,30,0,73,0,29.8,0,4.1,0
2003/9/3 6:00,28.8,0,78,0,30,0,72.9,0,29.8,0,4.3,0
2003/9/3 6:15,28.8,0,79,0,30,0,73.1,0,29.8,0,4.3,0
2003/9/3 6:30,29.1,0,78,0,30,0,73.2,0,29.8,0,4.3,0
2003/9/3 6:45,29.3,0,77,0,30,0,73,0,29.8,0,4.1,0
2003/9/3 7:00,29.7,0,74,0,30,0,73.4,0,29.9,0,3.9,0
2003/9/3 7:15,30,0,72,0,29.9,0,73.7,0,30.1,0,4,0
2003/9/3 7:30,30.5,0,70,0,29.9,0,73.3,0,30.4,0,3.9,0
2003/9/3 7:45,31.4,0,66,0,30,0,74.3,0,30.6,0,3.9,0
2003/9/3 8:00,31.6,0,65,0,30,0,74.1,0,30.8,0,4.1,0
2003/9/3 8:15,32.5,0,61,0,30,0,73.7,0,31,0,4,0
2003/9/3 8:30,34,0,56,0,29.9,0,72.3,0,31.1,0,3.9,0
2003/9/3 8:45,41.3,0,33,0,29.9,0,71.8,0,31.1,0,3.9,0
2003/9/3 9:00,41.7,0,33,0,29.9,0,71.5,0,31.1,0,4,0
2003/9/3 9:15,44.7,0,26,0,30,0,71.3,0,31.1,0,3.8,0
2003/9/3 9:30,46.1,0,23,0,30,0,71.7,0,31,0,3.8,0
2003/9/3 9:45,47,0,22,0,30,0,70.7,0,31,0,3.9,0
2003/9/3 10:00,47.3,0,20,0,30,0,70.5,0,30.9,0,3.9,0
2003/9/3 10:15,47.6,0,21,0,30,0,69.8,0,30.8,0,4,0
2003/9/3 10:30,46.9,0,22,0,30,0,69.8,0,30.8,0,4,0
2003/9/3 10:45,40,0,36,0,30.1,0,69.5,0,30.7,0,4.1,0
2003/9/3 11:00,37,0,44,0,30.1,0,69.4,0,30.7,0,4,0
2003/9/3 11:15,36.8,0,46,0,30,0,71.8,0,30.6,0,4.1,0
2003/9/3 11:30,36.5,0,47,0,30.1,0,72.7,0,30.6,0,4.2,0
2003/9/3 11:45,35.8,0,49,0,30.1,0,73.2,0,30.6,0,4,0
2003/9/3 12:00,35.4,0,50,0,30.1,0,72.7,0,30.6,0,4.2,0
2003/9/3 12:15,35.1,0,52,0,30.1,0,72.3,0,30.6,0,4.2,0
2003/9/3 12:30,34.8,0,54,0,30.1,0,72.5,0,30.5,0,4.1,0
2003/9/3 12:45,34.6,0,56,0,30.2,0,74.3,0,30.5,0,4.2,0
2003/9/3 13:00,34.5,0,56,0,30.2,0,74.8,0,30.5,0,4.2,0
2003/9/3 13:15,34.4,0,56,0,30.3,0,75.1,0,30.5,0,4.2,0
2003/9/3 13:30,34.4,0,57,0,30.4,0,75.4,0,30.5,0,4.2,0
2003/9/3 13:45,34.2,0,58,0,30.6,0,75.1,0,30.5,0,4.2,0
2003/9/3 14:00,34,0,57,0,30.7,0,75.4,0,30.5,0,4.1,0
2003/9/3 14:15,33.9,0,59,0,30.7,0,73.9,0,30.5,0,4.2,0
2003/9/3 14:30,33.9,0,58,0,30.8,0,74.3,0,30.5,0,4.2,0
2003/9/3 14:45,33.7,0,60,0,30.9,0,73.9,0,30.5,0,4.4,0
2003/9/3 15:00,33.8,0,60,0,30.9,0,74.1,0,30.6,0,4.4,0
2003/9/3 15:15,33.8,0,59,0,30.9,0,74.5,0,30.6,0,4.4,0
2003/9/3 15:30,33.7,0,60,0,30.9,0,74.3,0,30.6,0,4.4,0
2003/9/3 15:45,33.5,0,61,0,31,0,74.4,0,30.7,0,4.4,0
2003/9/3 16:00,33.3,0,61,0,31.1,0,74.2,0,30.7,0,4.4,0
2003/9/3 16:15,33.3,0,60,0,31.2,0,73.5,0,30.7,0,4.5,0
2003/9/3 16:30,33.3,0,62,0,31.4,0,72.6,0,30.7,0,4.4,0
2003/9/3 16:45,33.2,0,60,0,31.5,0,73.4,0,30.8,0,4.5,0
2003/9/3 17:00,33.1,0,60,0,31.5,0,70.2,0,30.8,0,4.6,0
2003/9/3 17:15,33.5,0,59,0,31.5,0,68.7,0,30.7,0,4.5,0
2003/9/3 17:30,33.5,0,60,0,31.4,0,70.4,0,30.7,0,4.6,0
2003/9/3 17:45,33.2,0,63,0,31.6,0,71.6,0,30.6,0,4.7,0
2003/9/3 18:00,33,0,63,0,31.6,0,72.1,0,30.6,0,4.7,0
2003/9/3 18:15,33,0,64,0,31.6,0,71.8,0,30.6,0,4.5,0
2003/9/3 18:30,32.9,0,64,0,31.5,0,69.4,0,30.7,0,4.6,0
2003/9/3 18:45,32.7,0,67,0,30.5,0,64.1,0,30.7,0,4.5,0
2003/9/3 19:00,32.5,0,67,0,29.7,0,62.8,0,30.8,0,4.6,0
2003/9/3 19:15,32.4,0,67,0,30.5,0,78.2,0,30.7,0,4.5,0
2003/9/3 19:30,32.4,0,69,0,30.5,0,75.3,0,30.7,0,4.5,0
2003/9/3 19:45,32.4,0,68,0,30.7,0,75.7,0,30.8,0,4.5,0
2003/9/3 20:00,32.2,0,69,0,30.7,0,77.3,0,30.8,0,4.4,0
2003/9/3 20:15,32.2,0,66,0,30.7,0,78.1,0,30.8,0,4.3,0
2003/9/3 20:30,32.3,0,69,0,30.7,0,77.6,0,30.8,0,4.3,0
2003/9/3 20:45,32.1,0,69,0,30.7,0,77.7,0,30.8,0,4.2,0
2003/9/3 21:00,32.3,0,68,0,30.7,0,77,0,30.7,0,4.3,0
2003/9/3 21:15,32.1,0,69,0,30.7,0,76.5,0,30.7,0,4.3,0
2003/9/3 21:30,32,0,70,0,30.7,0,75.6,0,30.6,0,4.4,0
2003/9/3 21:45,31.8,0,71,0,30.8,0,72,0,30.6,0,4.4,0
2003/9/3 22:00,31.8,0,72,0,30.6,0,72.1,0,30.6,0,4.3,0
2003/9/3 22:15,31.8,0,72,0,30.6,0,72.5,0,30.6,0,4.3,0
2003/9/3 22:30,31.7,0,72,0,30.5,0,71.6,0,30.6,0,4.4,0
2003/9/3 22:45,31.7,0,72,0,30.4,0,72,0,30.6,0,4.6,0
2003/9/3 23:00,31.5,0,73,0,30.3,0,72.3,0,30.5,0,4.7,0
2003/9/3 23:15,31.4,0,72,0,30.3,0,71.6,0,30.5,0,4.7,0
2003/9/3 23:30,31.5,0,71,0,30.2,0,72.4,0,30.5,0,4.8,0
2003/9/3 23:45,31.3,0,68,0,30.2,0,72.3,0,30.5,0,4.7,0
2003/9/4 0:00,30.7,0,70,0,30.2,0,71.6,0,30.5,0,4.8,0
2003/9/4 0:15,30.6,0,71,0,30.1,0,71.4,0,30.4,0,4.9,0
2003/9/4 0:30,30.7,0,70,0,30.1,0,71.4,0,30.3,0,4.8,0
2003/9/4 0:45,30.5,0,69,0,30.1,0,71.1,0,30.2,0,4.9,0
2003/9/4 1:00,30.2,0,67,0,30,0,71,0,30.1,0,4.9,0
2003/9/4 1:15,30.4,0,68,0,30,0,70.6,0,30,0,4.9,0
2003/9/4 1:30,30.5,0,69,0,29.9,0,70.1,0,29.9,0,5.1,0
2003/9/4 1:45,30.5,0,70,0,29.9,0,70.2,0,29.9,0,5,0
2003/9/4 2:00,30.4,0,72,0,29.9,0,70.6,0,29.8,0,5,0
2003/9/4 2:15,30.3,0,71,0,29.9,0,71,0,29.8,0,4.8,0
2003/9/4 2:30,30.3,0,71,0,30.2,0,72.4,0,29.9,0,4.9,0
2003/9/4 2:45,30.3,0,72,0,30.3,0,72.9,0,29.9,0,4.6,0
2003/9/4 3:00,29.8,0,75,0,30.4,0,73.1,0,29.9,0,4.6,0
2003/9/4 3:15,30,0,77,0,30.4,0,73.3,0,29.9,0,4.7,0
2003/9/4 3:30,29.4,0,79,0,30.5,0,74,0,29.8,0,4.6,0
2003/9/4 3:45,29.8,0,79,0,30.6,0,74.6,0,29.8,0,4.6,0
2003/9/4 4:00,30.1,0,78,0,30.6,0,75,0,29.8,0,4.6,0
2003/9/4 4:15,30,0,78,0,30.6,0,75.3,0,29.8,0,4.6,0
2003/9/4 4:30,30.1,0,78,0,30.7,0,75.3,0,29.9,0,4.7,0
2003/9/4 4:45,30.2,0,77,0,30.7,0,75.4,0,29.9,0,4.8,0
2003/9/4 5:00,30.1,0,77,0,30.7,0,75.4,0,29.9,0,4.7,0
2003/9/4 5:15,29.8,0,75,0,30.6,0,75,0,29.9,0,4.7,0
2003/9/4 5:30,29.7,0,74,0,30.6,0,75.3,0,29.9,0,4.8,0
2003/9/4 5:45,29.9,0,72,0,30.6,0,73.7,0,29.8,0,4.8,0
2003/9/4 6:00,29.7,0,73,0,30.6,0,74,0,29.8,0,4.9,0
2003/9/4 6:15,29.6,0,72,0,30.6,0,73,0,29.7,0,4.8,0
2003/9/4 6:30,29.7,0,72,0,30.6,0,73.1,0,29.7,0,4.7,0
2003/9/4 6:45,30,0,70,0,30.6,0,73.5,0,29.6,0,4.8,0
2003/9/4 7:00,30.6,0,68,0,30.6,0,73.7,0,29.7,0,4.8,0
2003/9/4 7:15,31.3,0,66,0,30.6,0,72.5,0,29.7,0,4.8,0
2003/9/4 7:30,32.3,0,62,0,30.5,0,71.8,0,29.8,0,4.9,0
2003/9/4 7:45,31.9,0,65,0,30.5,0,73.2,0,30.1,0,4.9,0
2003/9/4 8:00,31.9,0,64,0,30.5,0,71.8,0,30.4,0,4.5,0
2003/9/4 8:15,32.4,0,63,0,30.5,0,71.5,0,30.5,0,4.5,0
2003/9/4 8:30,34,0,58,0,30.5,0,71.3,0,30.4,0,4.7,0
2003/9/4 8:45,39.7,0,39,0,30.3,0,69.3,0,30.6,0,4.6,0
2003/9/4 9:00,40.2,0,38,0,30.4,0,72.8,0,30.9,0,4.6,0
2003/9/4 9:15,43.5,0,30,0,30.5,0,72.8,0,30.9,0,4.3,0
2003/9/4 9:30,45.5,0,25,0,30.6,0,73.2,0,30.8,0,4.2,0
2003/9/4 9:45,46.6,0,23,0,30.5,0,72.1,0,30.9,0,4.1,0
2003/9/4 10:00,46.9,0,22,0,30.4,0,70.9,0,30.8,0,4.2,0
2003/9/4 10:15,47.1,0,20,0,30.5,0,71,0,30.6,0,4.3,0
2003/9/4 10:30,46.9,0,23,0,30.5,0,70.6,0,30.5,0,4.7,0
2003/9/4 10:45,39.5,0,36,0,30.5,0,70.4,0,30.5,0,4.7,0
2003/9/4 11:00,36.7,0,43,0,30.4,0,70.2,0,30.5,0,4.8,0
2003/9/4 11:15,36.1,0,45,0,30.4,0,69.8,0,30.3,0,4.6,0
2003/9/4 11:30,35.6,0,47,0,30.3,0,70.4,0,30.2,0,4.7,0
2003/9/4 11:45,35.2,0,48,0,30.4,0,70.4,0,30.1,0,4.8,0
2003/9/4 12:00,35.1,0,47,0,30.4,0,69.7,0,30.1,0,4.9,0
2003/9/4 12:15,34.7,0,48,0,30.5,0,69.2,0,30,0,5,0
2003/9/4 12:30,34.5,0,49,0,30.4,0,67.7,0,30,0,5,0
2003/9/4 12:45,34.3,0,50,0,30.4,0,69.2,0,29.9,0,4.9,0
2003/9/4 13:00,34,0,51,0,30.5,0,68.5,0,29.9,0,5,0
2003/9/4 13:15,33.7,0,55,0,30.5,0,68.8,0,29.9,0,4.8,0
2003/9/4 13:30,33.5,0,55,0,30.6,0,70.1,0,30,0,4.9,0
2003/9/4 13:45,33.4,0,55,0,30.6,0,70,0,30,0,4.9,0
2003/9/4 14:00,33.3,0,57,0,30.6,0,70.5,0,30.1,0,4.9,0
2003/9/4 14:15,33.3,0,59,0,30.7,0,70.3,0,30.1,0,4.9,0
2003/9/4 14:30,33.2,0,60,0,31,0,70.7,0,30.1,0,5.2,0
2003/9/4 14:45,32.9,0,61,0,31,0,72.1,0,30.2,0,5.3,0
2003/9/4 15:00,33.2,0,59,0,31.2,0,71.9,0,30.3,0,5.3,0
2003/9/4 15:15,33.2,0,58,0,31.2,0,71.8,0,30.3,0,5.4,0
2003/9/4 15:30,33.4,0,57,0,31.1,0,71.3,0,30.3,0,5.2,0
2003/9/4 15:45,33.4,0,56,0,31.1,0,70.7,0,30.3,0,5.1,0
2003/9/4 16:00,33.3,0,57,0,31.1,0,70.4,0,30.3,0,4.7,0
2003/9/4 16:15,33.1,0,57,0,31.3,0,70,0,30.3,0,4.8,0
2003/9/4 16:30,33,0,55,0,31.4,0,69.8,0,30.3,0,4.9,0
2003/9/4 16:45,32.7,0,56,0,31.4,0,67.4,0,30.4,0,5,0
2003/9/4 17:00,32.4,0,57,0,31.2,0,67.1,0,30.3,0,4.9,0
2003/9/4 17:15,32.1,0,59,0,31.2,0,68.1,0,30.3,0,4.8,0
2003/9/4 17:30,32,0,59,0,31,0,68.5,0,30.3,0,4.8,0
2003/9/4 17:45,32.1,0,59,0,31.2,0,68.4,0,30.2,0,4.8,0
2003/9/4 18:00,32.1,0,59,0,31.4,0,67.2,0,30.2,0,4.9,0
2003/9/4 18:15,32.2,0,60,0,31.5,0,67.5,0,30.3,0,4.9,0
2003/9/4 18:30,32.2,0,59,0,31.5,0,67.7,0,30.3,0,4.9,0
2003/9/4 18:45,32,0,60,0,31.4,0,68,0,30.3,0,5.1,0
2003/9/4 19:00,32,0,60,0,31.2,0,68.7,0,30.4,0,5.2,0
2003/9/4 19:15,31.8,0,61,0,31.2,0,69.8,0,30.4,0,5,0
2003/9/4 19:30,31.8,0,60,0,31,0,69.8,0,30.4,0,4.9,0
2003/9/4 19:45,31.8,0,61,0,30.9,0,69.6,0,30.3,0,4.8,0
2003/9/4 20:00,31.8,0,60,0,30.7,0,71.1,0,30.3,0,5,0
2003/9/4 20:15,31.5,0,61,0,30.8,0,68.9,0,30.3,0,5.1,0
2003/9/4 20:30,31.5,0,62,0,30.7,0,69.2,0,30.3,0,4.8,0
2003/9/4 20:45,31.3,0,63,0,30.7,0,69.7,0,30.2,0,4.9,0
2003/9/4 21:00,31.3,0,63,0,30.5,0,70.5,0,30.2,0,4.7,0
2003/9/4 21:15,31.1,0,63,0,30.4,0,70.7,0,30.2,0,4.7,0
2003/9/4 21:30,31.1,0,62,0,30.5,0,70.2,0,30.2,0,4.8,0
2003/9/4 21:45,31.1,0,61,0,30.7,0,68.8,0,30.2,0,4.8,0
2003/9/4 22:00,31,0,61,0,30.7,0,68.5,0,30.1,0,4.7,0
2003/9/4 22:15,31.1,0,61,0,30.8,0,68.1,0,30.1,0,4.6,0
2003/9/4 22:30,30.9,0,60,0,30.7,0,68,0,30.1,0,4.7,0
2003/9/4 22:45,30.7,0,60,0,30.7,0,67.7,0,30,0,4.7,0
2003/9/4 23:00,30.6,0,59,0,30.6,0,66.9,0,30,0,4.7,0
2003/9/4 23:15,30.6,0,58,0,30.6,0,67.2,0,30,0,4.6,0
2003/9/4 23:30,30.6,0,57,0,30.6,0,67,0,30,0,4.7,0
2003/9/4 23:45,30.3,0,59,0,30.5,0,66.2,0,30,0,4.8,0
2003/9/5 0:00,30.4,0,59,0,30.4,0,65.8,0,30,0,4.7,0
2003/9/5 0:15,30.6,0,59,0,30.4,0,65.7,0,30,0,4.7,0
2003/9/5 0:30,30.4,0,60,0,30.3,0,66.1,0,29.9,0,4.9,0
2003/9/5 0:45,30.4,0,61,0,30.2,0,66.6,0,29.8,0,4.9,0
2003/9/5 1:00,30.4,0,56,0,30.2,0,67.2,0,29.8,0,4.8,0
2003/9/5 1:15,30.2,0,56,0,29.9,0,63.6,0,29.8,0,4.9,0
2003/9/5 1:30,30,0,55,0,29.7,0,62.8,0,29.7,0,4.9,0
2003/9/5 1:45,29.7,0,56,0,29.9,0,62.6,0,29.5,0,5,0
2003/9/5 2:00,29.6,0,57,0,29.8,0,62.5,0,29.5,0,4.8,0
2003/9/5 2:15,29.4,0,57,0,29.7,0,61.5,0,29.4,0,5,0
2003/9/5 2:30,29.2,0,58,0,29.7,0,61.4,0,29.4,0,5,0
2003/9/5 2:45,29.1,0,59,0,29.7,0,61.6,0,29.4,0,5,0
2003/9/5 3:00,29.1,0,59,0,29.7,0,61.8,0,29.3,0,4.9,0
2003/9/5 3:15,29.1,0,61,0,29.7,0,61.9,0,29.3,0,5.1,0
2003/9/5 3:30,29.1,0,60,0,29.7,0,62,0,29.2,0,4.9,0
2003/9/5 3:45,29.2,0,62,0,29.6,0,62.2,0,29.2,0,5,0
2003/9/5 4:00,29,0,63,0,29.6,0,62.6,0,29.2,0,4.9,0
2003/9/5 4:15,28.9,0,64,0,29.6,0,63,0,29.2,0,4.9,0
2003/9/5 4:30,28.8,0,64,0,29.6,0,63.2,0,29.2,0,5,0
2003/9/5 4:45,28.6,0,65,0,29.5,0,62.6,0,29.2,0,4.9,0
2003/9/5 5:00,28.8,0,65,0,29.5,0,63.5,0,29.2,0,4.9,0
2003/9/5 5:15,28.7,0,65,0,29.5,0,63.5,0,29.2,0,5,0
2003/9/5 5:30,28.7,0,65,0,29.7,0,64.4,0,29.2,0,5,0
2003/9/5 5:45,28.6,0,64,0,29.7,0,65.8,0,29.1,0,5,0
2003/9/5 6:00,28.1,0,65,0,29.8,0,65.8,0,29.2,0,4.9,0
2003/9/5 6:15,28,0,65,0,29.8,0,64.9,0,29.2,0,4.9,0
2003/9/5 6:30,27.8,0,67,0,29.8,0,64.9,0,29,0,5,0
2003/9/5 6:45,28.3,0,65,0,29.8,0,65.1,0,28.9,0,4.9,0
2003/9/5 7:00,29.1,0,64,0,29.8,0,65.6,0,28.9,0,5.2,0
2003/9/5 7:15,29.8,0,60,0,30,0,66.3,0,29.1,0,5.1,0
2003/9/5 7:30,29.6,0,61,0,30.1,0,67.9,0,29.3,0,5,0
2003/9/5 7:45,30.6,0,58,0,30.3,0,65.5,0,29.5,0,4.9,0
2003/9/5 8:00,31.4,0,55,0,30.3,0,66,0,29.8,0,4.9,0
2003/9/5 8:15,32,0,54,0,30.4,0,66.1,0,30,0,5,0
2003/9/5 8:30,32.7,0,52,0,30.4,0,66,0,30.2,0,4.9,0
2003/9/5 8:45,39,0,34,0,30.4,0,65.9,0,30.3,0,4.9,0
2003/9/5 9:00,39.9,0,32,0,30.5,0,65.3,0,30.5,0,4.8,0
2003/9/5 9:15,44,0,23,0,30.4,0,64.9,0,30.5,0,4,0
2003/9/5 9:30,45.4,0,21,0,30.3,0,64.4,0,30.6,0,4.1,0
2003/9/5 9:45,45.4,0,21,0,30.4,0,64.6,0,30.6,0,4.1,0
2003/9/5 10:00,45.6,0,21,0,30.5,0,64.7,0,30.6,0,4.1,0
2003/9/5 10:15,46.3,0,22,0,30.5,0,64.6,0,30.6,0,4.1,0
2003/9/5 10:30,46.4,0,22,0,30.5,0,65.7,0,30.6,0,4.1,0
2003/9/5 10:45,39.6,0,36,0,30.7,0,66.4,0,30.6,0,4.1,0
2003/9/5 11:00,37.3,0,40,0,30.9,0,66.2,0,30.7,0,4.2,0
2003/9/5 11:15,36.7,0,41,0,30.8,0,65,0,30.8,0,4.2,0
2003/9/5 11:30,36,0,42,0,30.8,0,64.5,0,30.6,0,4.8,0
2003/9/5 11:45,35.6,0,44,0,30.8,0,64.2,0,30.5,0,4.8,0
2003/9/5 12:00,35.3,0,44,0,30.8,0,64.6,0,30.4,0,4.8,0
2003/9/5 12:15,34.9,0,47,0,30.7,0,64.1,0,30.3,0,4.9,0
2003/9/5 12:30,34.7,0,47,0,30.7,0,64.5,0,30.3,0,4.8,0
2003/9/5 12:45,34.4,0,48,0,30.7,0,65.4,0,30.3,0,4.9,0
2003/9/5 13:00,34.3,0,49,0,30.8,0,65.4,0,30.3,0,4.9,0
2003/9/5 13:15,34.1,0,51,0,30.9,0,65.9,0,30.3,0,4.9,0
2003/9/5 13:30,34,0,52,0,30.9,0,66.5,0,30.3,0,4.8,0
2003/9/5 13:45,34,0,52,0,30.9,0,67.6,0,30.4,0,5,0
2003/9/5 14:00,33.8,0,54,0,30.9,0,67.5,0,30.4,0,4.8,0
2003/9/5 14:15,33.7,0,54,0,30.9,0,68.3,0,30.5,0,5.1,0
2003/9/5 14:30,33.6,0,55,0,30.9,0,68.6,0,30.5,0,5.2,0
2003/9/5 14:45,33.5,0,56,0,30.9,0,69.4,0,30.5,0,5.2,0
2003/9/5 15:00,33.5,0,54,0,31,0,69.8,0,30.5,0,5.3,0